This is the latest recevied weather packets stored in our database for station/object N7WSS. If no packets are shown the sender has not sent any weather packets the latest 10 day(s).
| Time | Temp. | Humidity | Pressure | Rain* | Wind** | Luminosity | Snow |
|---|---|---|---|---|---|---|---|
| 1777502222 | 27.22° C | 13% | 1011.4 hPa | 0 mm | - | - | - |
| 1777501919 | 27.78° C | 13% | 1011.5 hPa | 0 mm | - | - | - |
| 1777501616 | 27.78° C | 13% | 1011.5 hPa | 0 mm | - | - | - |
| 1777501313 | 27.78° C | 14% | 1011.4 hPa | 0 mm | - | - | - |
| 1777501011 | 28.33° C | 15% | 1011.7 hPa | 0 mm | - | - | - |
| 1777500709 | 27.78° C | 14% | 1011.8 hPa | 0 mm | - | - | - |
| 1777500405 | 28.33° C | 14% | 1011.8 hPa | 0 mm | - | - | - |
| 1777500101 | 28.33° C | 15% | 1012 hPa | 0 mm | - | - | - |
| 1777499798 | 27.78° C | 14% | 1011.9 hPa | 0 mm | - | - | - |
| 1777499494 | 27.22° C | 14% | 1011.9 hPa | 0 mm | - | - | - |
| 1777499193 | 27.22° C | 15% | 1011.9 hPa | 0 mm | - | - | - |
| 1777498889 | 28.89° C | 14% | 1012.4 hPa | 0 mm | - | - | - |
| 1777498586 | 28.33° C | 14% | 1012.1 hPa | 0 mm | - | - | - |
| 1777498282 | 27.22° C | 14% | 1012.5 hPa | 0 mm | - | - | - |
| 1777497981 | 27.78° C | 14% | 1012.5 hPa | 0 mm | - | - | - |
| 1777497676 | 27.78° C | 14% | 1012.4 hPa | 0 mm | - | - | - |
| 1777497373 | 27.78° C | 15% | 1012.6 hPa | 0 mm | - | - | - |
| 1777497068 | 27.22° C | 15% | 1012.5 hPa | 0 mm | - | - | - |
| 1777496765 | 27.78° C | 15% | 1012.9 hPa | 0 mm | - | - | - |
| 1777496462 | 27.78° C | 14% | 1012.9 hPa | 0 mm | - | - | - |
| 1777496159 | 28.33° C | 15% | 1013.1 hPa | 0 mm | - | - | - |
| 1777495855 | 27.78° C | 14% | 1012.9 hPa | 0 mm | - | - | - |
| 1777495551 | 28.33° C | 14% | 1012.8 hPa | 0 mm | - | - | - |
| 1777495247 | 27.78° C | 14% | 1012.9 hPa | 0 mm | - | - | - |
| 1777494945 | 28.33° C | 13% | 1013 hPa | 0 mm | - | - | - |
* Rain latest hour (hover to see other rain measurements)
** Current wind speed in m/s (hover to see current wind gust speed)